| time (UTC) | temp F | wind direction | speed MPH | gust MPH | rain 1hr in | rain 24hr in | rain mn in | humidity % | barometer mb |
| 20260906192611 | 67 | 147 | 3.0 | 8.0 | 0.00 | 0.00 | 0.00 | 37 | 1021.6 |
| 20260906191609 | 66 | 178 | 3.0 | 5.0 | 0.00 | 0.00 | 0.00 | 38 | 1021.6 |
| 20260906190707 | 66 | 217 | 2.0 | 4.0 | 0.00 | 0.00 | 0.00 | 39 | 1021.7 |
| 20260906185710 | 66 | 173 | 6.0 | 8.0 | 0.00 | 0.00 | 0.00 | 40 | 1021.8 |
| 20260906182726 | 66 | 188 | 3.0 | 7.0 | 0.00 | 0.00 | 0.00 | 42 | 1021.8 |
| 20260906181811 | 66 | 180 | 5.0 | 10.0 | 0.00 | 0.00 | 0.00 | 43 | 1021.6 |
| 20260906180908 | 65 | 183 | 3.0 | 7.0 | 0.00 | 0.00 | 0.00 | 42 | 1021.8 |
| 20260906175910 | 65 | 191 | 5.0 | 10.0 | 0.00 | 0.00 | 0.00 | 44 | 1021.9 |
| 20260906175010 | 64 | 198 | 3.0 | 6.0 | 0.00 | 0.00 | 0.00 | 47 | 1021.9 |
| 20260906174109 | 63 | 225 | 1.0 | 4.0 | 0.00 | 0.00 | 0.00 | 47 | 1021.9 |
| 20260906173110 | 63 | 152 | 3.0 | 4.0 | 0.00 | 0.00 | 0.00 | 47 | 1021.9 |
| 20260906172208 | 63 | 186 | 4.0 | 7.0 | 0.00 | 0.00 | 0.00 | 47 | 1021.9 |
| 20260906171210 | 62 | 155 | 2.0 | 4.0 | 0.00 | 0.00 | 0.00 | 49 | 1021.8 |
| 20260906170210 | 62 | 205 | 2.0 | 4.0 | 0.00 | 0.00 | 0.00 | 49 | 1021.7 |
| 20260906165211 | 62 | 139 | 4.0 | 9.0 | 0.00 | 0.00 | 0.00 | 48 | 1021.8 |
| 20260906164310 | 62 | 177 | 3.0 | 6.0 | 0.00 | 0.00 | 0.00 | 48 | 1021.8 |
| 20260906163407 | 63 | 211 | 1.0 | 2.0 | 0.00 | 0.00 | 0.00 | 47 | 1021.7 |
| 20260906162410 | 63 | 180 | 4.0 | 7.0 | 0.00 | 0.00 | 0.00 | 47 | 1021.8 |
| 20260906161411 | 62 | 215 | 2.0 | 3.0 | 0.00 | 0.00 | 0.00 | 50 | 1021.9 |
| 20260906155410 | 59 | 209 | 0.0 | 1.0 | 0.00 | 0.00 | 0.00 | 53 | 1022.0 |
| 20260906154509 | 58 | 225 | 0.0 | 0.0 | 0.00 | 0.00 | 0.00 | 56 | 1022.0 |
| 20260906153512 | 57 | 157 | 1.0 | 2.0 | 0.00 | 0.00 | 0.00 | 57 | 1021.9 |
| 20260906152511 | 56 | 247 | 0.0 | 0.0 | 0.00 | 0.00 | 0.00 | 57 | 1022.0 |
| 20260906151508 | 56 | 180 | 0.0 | 0.0 | 0.00 | 0.00 | 0.00 | 56 | 1021.8 |
| 20260906144626 | 53 | 180 | 0.0 | 0.0 | 0.00 | 0.00 | 0.00 | 58 | 1021.6 |
| 20260906143709 | 52 | 180 | 0.0 | 1.0 | 0.00 | 0.00 | 0.00 | 58 | 1021.6 |
| 20260906142808 | 52 | 157 | 0.0 | 0.0 | 0.00 | 0.00 | 0.00 | 59 | 1021.4 |
| 20260906141811 | 51 | 180 | 0.0 | 1.0 | 0.00 | 0.00 | 0.00 | 61 | 1021.2 |
| 20260906140908 | 51 | 204 | 0.0 | 0.0 | 0.00 | 0.00 | 0.00 | 61 | 1021.3 |
| 20260906135910 | 51 | 202 | 0.0 | 0.0 | 0.00 | 0.00 | 0.00 | 61 | 1021.2 |
| 20260906134911 | 51 | 180 | 0.0 | 0.0 | 0.00 | 0.00 | 0.00 | 60 | 1021.1 |
| 20260906134009 | 50 | 180 | 1.0 | 3.0 | 0.00 | 0.00 | 0.00 | 61 | 1020.9 |
| 20260906133010 | 50 | 157 | 0.0 | 0.0 | 0.00 | 0.00 | 0.00 | 61 | 1020.9 |
| 20260906132010 | 49 | 157 | 0.0 | 0.0 | 0.00 | 0.00 | 0.00 | 62 | 1020.9 |
| 20260906131008 | 49 | 180 | 0.0 | 0.0 | 0.00 | 0.00 | 0.00 | 61 | 1020.9 |
| 20260906125010 | 49 | 180 | 0.0 | 0.0 | 0.00 | 0.00 | 0.00 | 61 | 1021.0 |
| 20260906123110 | 49 | 180 | 0.0 | 0.0 | 0.00 | 0.00 | 0.00 | 62 | 1021.2 |
| 20260906122111 | 49 | 180 | 0.0 | 0.0 | 0.00 | 0.00 | 0.00 | 62 | 1021.3 |
| 20260906121108 | 50 | 180 | 0.0 | 0.0 | 0.00 | 0.00 | 0.00 | 62 | 1021.2 |
| 20260906120110 | 50 | 180 | 0.0 | 0.0 | 0.00 | 0.00 | 0.00 | 60 | 1021.2 |
| 20260906115208 | 50 | 180 | 0.0 | 0.0 | 0.00 | 0.00 | 0.00 | 61 | 1021.2 |
| 20260906114209 | 50 | 180 | 0.0 | 0.0 | 0.00 | 0.00 | 0.00 | 62 | 1021.1 |
| 20260906113308 | 50 | 180 | 0.0 | 0.0 | 0.00 | 0.00 | 0.00 | 62 | 1021.2 |
| 20260906112310 | 51 | 180 | 0.0 | 0.0 | 0.00 | 0.00 | 0.00 | 62 | 1021.2 |
| 20260906110408 | 51 | 180 | 0.0 | 0.0 | 0.00 | 0.00 | 0.00 | 63 | 1021.1 |
| 20260906105409 | 51 | 180 | 0.0 | 0.0 | 0.00 | 0.00 | 0.00 | 64 | 1021.1 |
| 20260906103511 | 51 | 180 | 0.0 | 0.0 | 0.00 | 0.00 | 0.00 | 62 | 1021.0 |
| 20260906102509 | 52 | 180 | 0.0 | 0.0 | 0.00 | 0.00 | 0.00 | 61 | 1021.0 |
| 20260906101512 | 53 | 180 | 0.0 | 0.0 | 0.00 | 0.00 | 0.00 | 60 | 1021.0 |
| 20260906100510 | 54 | 180 | 0.0 | 0.0 | 0.00 | 0.00 | 0.00 | 57 | 1021.2 |
| 20260906095509 | 55 | 180 | 0.0 | 0.0 | 0.00 | 0.00 | 0.00 | 56 | 1021.2 |
| 20260906094510 | 55 | 189 | 0.0 | 1.0 | 0.00 | 0.00 | 0.00 | 56 | 1021.2 |
| 20260906093608 | 55 | 227 | 1.0 | 2.0 | 0.00 | 0.00 | 0.00 | 56 | 1021.3 |
| 20260906092612 | 55 | 180 | 2.0 | 3.0 | 0.00 | 0.00 | 0.00 | 56 | 1021.2 |
| 20260906091609 | 56 | 180 | 2.0 | 3.0 | 0.00 | 0.00 | 0.00 | 55 | 1021.3 |
| 20260906090609 | 56 | 180 | 0.0 | 2.0 | 0.00 | 0.00 | 0.00 | 55 | 1021.3 |
| 20260906085708 | 56 | 173 | 1.0 | 2.0 | 0.00 | 0.00 | 0.00 | 54 | 1021.3 |
| 20260906083711 | 56 | 176 | 3.0 | 5.0 | 0.00 | 0.00 | 0.00 | 53 | 1021.4 |
| 20260906083609 | 56 | 185 | 3.0 | 6.0 | 0.00 | 0.00 | 0.00 | 52 | 1021.4 |
| 20260906082611 | 56 | 188 | 3.0 | 5.0 | 0.00 | 0.00 | 0.00 | 53 | 1021.3 |
| 20260906081608 | 56 | 224 | 2.0 | 3.0 | 0.00 | 0.00 | 0.00 | 53 | 1021.3 |
| 20260906080610 | 56 | 174 | 3.0 | 4.0 | 0.00 | 0.00 | 0.00 | 53 | 1021.4 |
| 20260906074708 | 56 | 208 | 2.0 | 3.0 | 0.00 | 0.00 | 0.00 | 53 | 1021.3 |
| 20260906073711 | 56 | 189 | 3.0 | 5.0 | 0.00 | 0.00 | 0.00 | 54 | 1021.3 |
| 20260906071711 | 56 | 168 | 3.0 | 4.0 | 0.00 | 0.00 | 0.00 | 54 | 1021.3 |
| 20260906065715 | 56 | 170 | 4.0 | 5.0 | 0.00 | 0.00 | 0.00 | 53 | 1021.3 |
| 20260906064613 | 56 | 220 | 0.0 | 1.0 | 0.00 | 0.00 | 0.00 | 54 | 1021.3 |
| 20260906063615 | 56 | 178 | 2.0 | 5.0 | 0.00 | 0.00 | 0.00 | 55 | 1021.3 |
| 20260906062714 | 56 | 170 | 2.0 | 4.0 | 0.00 | 0.00 | 0.00 | 54 | 1021.3 |
| 20260906060713 | 55 | 169 | 3.0 | 5.0 | 0.00 | 0.00 | 0.00 | 58 | 1021.1 |
| 20260906055713 | 55 | 206 | 0.0 | 3.0 | 0.00 | 0.00 | 0.00 | 59 | 1021.2 |
| 20260906054714 | 54 | 222 | 1.0 | 2.0 | 0.00 | 0.00 | 0.00 | 62 | 1021.2 |
| 20260906053812 | 53 | 157 | 1.0 | 2.0 | 0.00 | 0.00 | 0.00 | 65 | 1021.2 |
| 20260906051916 | 51 | 180 | 0.0 | 1.0 | 0.00 | 0.00 | 0.00 | 72 | 1021.4 |
| 20260906051013 | 51 | 225 | 0.0 | 0.0 | 0.00 | 0.00 | 0.00 | 72 | 1021.3 |
| 20260906050015 | 51 | 225 | 0.0 | 0.0 | 0.00 | 0.00 | 0.00 | 73 | 1021.3 |
| 20260906045112 | 51 | 189 | 0.0 | 0.0 | 0.00 | 0.00 | 0.00 | 74 | 1021.3 |
| 20260906044114 | 51 | 225 | 0.0 | 0.0 | 0.00 | 0.00 | 0.00 | 73 | 1021.4 |
| 20260906043114 | 51 | 202 | 0.0 | 0.0 | 0.00 | 0.00 | 0.00 | 73 | 1021.4 |
| 20260906042114 | 51 | 202 | 0.0 | 0.0 | 0.00 | 0.00 | 0.00 | 73 | 1021.4 |
| 20260906041212 | 52 | 202 | 0.0 | 0.0 | 0.00 | 0.00 | 0.00 | 72 | 1021.4 |
| 20260906040230 | 52 | 202 | 0.0 | 0.0 | 0.00 | 0.00 | 0.00 | 73 | 1021.4 |
| 20260906034213 | 53 | 202 | 0.0 | 0.0 | 0.00 | 0.00 | 0.00 | 69 | 1021.4 |
| 20260906032212 | 54 | 202 | 0.0 | 0.0 | 0.00 | 0.00 | 0.00 | 69 | 1021.2 |
| 20260906031213 | 54 | 202 | 0.0 | 0.0 | 0.00 | 0.00 | 0.00 | 67 | 1021.3 |
| 20260906030215 | 55 | 202 | 0.0 | 0.0 | 0.00 | 0.00 | 0.00 | 65 | 1021.2 |
| 20260906025214 | 55 | 202 | 0.0 | 0.0 | 0.00 | 0.00 | 0.00 | 64 | 1021.2 |
| 20260906024313 | 56 | 202 | 0.0 | 0.0 | 0.00 | 0.00 | 0.00 | 61 | 1021.2 |
| 20260906023314 | 57 | 202 | 0.0 | 0.0 | 0.00 | 0.00 | 0.00 | 60 | 1021.3 |
| 20260906022315 | 58 | 202 | 0.0 | 0.0 | 0.00 | 0.00 | 0.00 | 59 | 1021.3 |
| 20260906021313 | 58 | 202 | 0.0 | 0.0 | 0.00 | 0.00 | 0.00 | 59 | 1021.4 |
| 20260906020314 | 59 | 202 | 0.0 | 0.0 | 0.00 | 0.00 | 0.00 | 58 | 1021.4 |
| 20260906015316 | 59 | 225 | 0.0 | 0.0 | 0.00 | 0.00 | 0.00 | 58 | 1021.3 |
| 20260906014313 | 60 | 202 | 0.0 | 0.0 | 0.00 | 0.00 | 0.00 | 57 | 1021.3 |
| 20260906012315 | 60 | 203 | 0.0 | 1.0 | 0.00 | 0.00 | 0.00 | 55 | 1021.3 |
| 20260906011315 | 61 | 225 | 0.0 | 3.0 | 0.00 | 0.00 | 0.00 | 55 | 1021.3 |
| 20260906010313 | 61 | 225 | 1.0 | 3.0 | 0.00 | 0.00 | 0.00 | 53 | 1021.3 |
| 20260906005412 | 61 | 187 | 0.0 | 1.0 | 0.00 | 0.00 | 0.00 | 54 | 1021.2 |
| 20260906003415 | 62 | 235 | 2.0 | 4.0 | 0.00 | 0.00 | 0.00 | 53 | 1021.5 |
| 20260906002414 | 63 | 245 | 1.0 | 2.0 | 0.00 | 0.00 | 0.00 | 52 | 1021.3 |
| 20260906000412 | 63 | 215 | 2.0 | 6.0 | 0.00 | 0.00 | 0.00 | 52 | 1021.2 |
| 20260905235512 | 63 | 206 | 3.0 | 7.0 | 0.00 | 0.00 | 0.00 | 51 | 1021.1 |
| 20260905234513 | 63 | 194 | 0.0 | 2.0 | 0.00 | 0.00 | 0.00 | 50 | 1021.1 |
| 20260905233513 | 63 | 203 | 2.0 | 4.0 | 0.00 | 0.00 | 0.00 | 52 | 1021.2 |
| 20260905232513 | 63 | 225 | 1.0 | 3.0 | 0.00 | 0.00 | 0.00 | 50 | 1021.2 |
| 20260905231612 | 63 | 178 | 2.0 | 6.0 | 0.00 | 0.00 | 0.00 | 51 | 1021.3 |
| 20260905225615 | 63 | 180 | 3.0 | 5.0 | 0.00 | 0.00 | 0.00 | 50 | 1021.4 |
| 20260905224613 | 64 | 225 | 1.0 | 3.0 | 0.00 | 0.00 | 0.00 | 52 | 1021.6 |
| 20260905223612 | 64 | 221 | 2.0 | 4.0 | 0.00 | 0.00 | 0.00 | 52 | 1021.5 |
| 20260905222614 | 64 | 174 | 5.0 | 6.0 | 0.00 | 0.00 | 0.00 | 51 | 1021.5 |
| 20260905221614 | 64 | 210 | 4.0 | 7.0 | 0.00 | 0.00 | 0.00 | 52 | 1021.5 |
| 20260905220614 | 64 | 210 | 1.0 | 2.0 | 0.00 | 0.00 | 0.00 | 51 | 1021.6 |
| 20260905215612 | 64 | 177 | 4.0 | 7.0 | 0.00 | 0.00 | 0.00 | 52 | 1021.5 |
| 20260905214613 | 64 | 156 | 3.0 | 7.0 | 0.00 | 0.00 | 0.00 | 53 | 1021.5 |
| 20260905213616 | 64 | 183 | 2.0 | 6.0 | 0.00 | 0.00 | 0.00 | 52 | 1021.6 |
| 20260905212713 | 64 | 240 | 0.0 | 1.0 | 0.00 | 0.00 | 0.00 | 52 | 1021.6 |
| 20260905211813 | 64 | 198 | 0.0 | 3.0 | 0.00 | 0.00 | 0.00 | 51 | 1021.6 |
| 20260905210814 | 64 | 224 | 3.0 | 4.0 | 0.00 | 0.00 | 0.00 | 53 | 1021.7 |
| 20260905205813 | 63 | 183 | 2.0 | 4.0 | 0.00 | 0.00 | 0.00 | 55 | 1021.6 |
| 20260905204913 | 62 | 233 | 0.0 | 3.0 | 0.00 | 0.00 | 0.00 | 54 | 1021.6 |
| 20260905203915 | 62 | 203 | 0.0 | 3.0 | 0.00 | 0.00 | 0.00 | 55 | 1021.6 |
| 20260905202915 | 62 | 225 | 0.0 | 2.0 | 0.00 | 0.00 | 0.00 | 56 | 1021.6 |
| 20260905201912 | 62 | 234 | 0.0 | 2.0 | 0.00 | 0.00 | 0.00 | 56 | 1021.7 |
| 20260905201012 | 62 | 189 | 1.0 | 3.0 | 0.00 | 0.00 | 0.00 | 56 | 1021.7 |
| 20260905195113 | 61 | 202 | 1.0 | 4.0 | 0.00 | 0.00 | 0.00 | 58 | 1021.8 |